Location: Lachaise
(45.8833°N, 1.8500°E)
Time: 07:48:02
(UTC+00:00)

STARLINK-61 - Pass Details

Date: 07 June 2020
Orbit: 505 x 517 km, 53.0° (Epoch: 04 July)

Event Time Altitude Azimuth Distance (km) Brightness Sun altitude
Exits shadow 01:36:43 33° 165° (SSE) 870 4.2 -17.3°
Maximum altitude 01:37:28 37° 138° (SE) 811 4.2 -17.2°
Drops below altitude 10° 01:41:05 10° 71° (ENE) 1,733 6.8 -17.0°
Sets 01:43:24 0° 63° (ENE) 2,625 8.0 -16.8°
